Weather History for KILM - August, 2013

Change the Weather History Date:

Thursday, August 29, 2013

  Actual Average Record
Temperature  
Mean Temperature 82 °F 78 °F  
Max Temperature 91 °F 87 °F 96 °F (1993)
Min Temperature 72 °F 70 °F 57 °F (1968)
Degree Days  
Heating Degree Days 0 0  
Month to date heating degree days 0 0  
Since 1 June heating degree days 0 2  
Since 1 July heating degree days 0 0  
Cooling Degree Days 17 13  
Month to date cooling degree days 393 430  
Year to date cooling degree days 1466 1597  
Since 1 June cooling degree days 1240 1316  
Growing Degree Days 33 (Base 50)    
Moisture  
Dew Point 72 °F    
Average Humidity 74    
Maximum Humidity 88    
Minimum Humidity 59    
Precipitation  
Precipitation 0.01 in 0.24 in 2.15 in (1935)
Month to date precipitation 8.68 6.92  
Year to date precipitation 42.49 38.48  
Sea Level Pressure  
Sea Level Pressure 29.91 in    
Wind  
Wind Speed 8 mph (NW)    
Max Wind Speed 18 mph    
Max Gust Speed 24 mph    
Visibility 10 miles    
Events Rain    
T = Trace of Precipitation, MM = Missing Value Source: NWS Daily Summary

Daily Weather History Graph

Daily Weather History Graph

Search for Another Location

Airport or City:

Trip Planner

Search our weather history database for the weather conditions in past years. The results will help you decide how hot, cold, wet, or windy it might be!

Date:

Astronomy

Aug. 29, 2013 Rise Set
Actual Time 6:43 AM EDT 7:41 PM EDT
Civil Twilight 6:17 AM EDT 8:06 PM EDT
Nautical Twilight 5:46 AM EDT 8:37 PM EDT
Astronomical Twilight 5:15 AM EDT 9:08 PM EDT
Moon 12:40 AM EDT (8/29) 3:00 PM EDT (8/29)
Length of Visible Light 13h 49m
Length of Day
12h 58m
Last Quarter, 38% of the Moon is Illuminated
Aug 29
Last Quarter
Sep 5
New
Sep 12
First Quarter
Sep 19
Full
Sep 26
Last Quarter

Hourly Weather History & Observations

Time (EDT) Temp. Heat Index Dew Point Humidity Pressure Visibility Wind Dir Wind Speed Gust Speed Precip Events Conditions
12:53 AM 78.1 °F - 72.0 °F 81% 29.91 in 10.0 mi SW 9.2 mph - N/A   Clear
1:53 AM 78.1 °F - 73.0 °F 84% 29.90 in 10.0 mi SW 9.2 mph - N/A   Clear
2:53 AM 78.1 °F - 72.0 °F 81% 29.90 in 10.0 mi WSW 11.5 mph - N/A   Clear
3:53 AM 78.1 °F - 70.0 °F 76% 29.89 in 10.0 mi WSW 11.5 mph - N/A   Clear
4:53 AM 77.0 °F - 69.1 °F 76% 29.88 in 10.0 mi WSW 12.7 mph - N/A   Clear
5:53 AM 77.0 °F - 68.0 °F 74% 29.89 in 10.0 mi WSW 9.2 mph - N/A   Clear
6:53 AM 75.9 °F - 68.0 °F 76% 29.89 in 10.0 mi WSW 15.0 mph - N/A   Scattered Clouds
7:53 AM 77.0 °F - 69.1 °F 76% 29.91 in 10.0 mi WSW 12.7 mph - 0.00 in Rain Light Rain
8:53 AM 77.0 °F - 69.1 °F 76% 29.91 in 10.0 mi WSW 9.2 mph - 0.00 in   Clear
9:53 AM 82.0 °F 86.3 °F 71.1 °F 69% 29.91 in 9.0 mi West 9.2 mph - N/A   Mostly Cloudy
10:53 AM 82.9 °F 87.5 °F 71.1 °F 67% 29.91 in 9.0 mi West 10.4 mph - N/A   Overcast
11:53 AM 84.9 °F 90.7 °F 72.0 °F 65% 29.90 in 9.0 mi NW 9.2 mph - N/A   Clear
12:53 PM 88.0 °F 95.6 °F 73.0 °F 61% 29.88 in 10.0 mi NNW 8.1 mph - N/A   Clear
1:53 PM 87.1 °F 95.4 °F 73.9 °F 65% 29.89 in 10.0 mi North 4.6 mph - N/A   Mostly Cloudy
2:53 PM 87.1 °F 97.3 °F 75.9 °F 69% 29.87 in 8.0 mi NNE 3.5 mph - 0.01 in   Scattered Clouds
3:53 PM 90.0 °F 99.0 °F 73.9 °F 59% 29.86 in 10.0 mi NNE 12.7 mph 16.1 mph N/A   Mostly Cloudy
4:53 PM 86.0 °F 95.1 °F 75.0 °F 70% 29.87 in 9.0 mi Variable 3.5 mph - N/A   Clear
5:53 PM 82.0 °F 87.9 °F 73.9 °F 76% 29.89 in 9.0 mi Calm Calm - N/A   Mostly Cloudy
6:53 PM 84.0 °F 89.6 °F 72.0 °F 67% 29.89 in 10.0 mi NNE 6.9 mph - N/A   Partly Cloudy
7:53 PM 81.0 °F 86.2 °F 73.9 °F 79% 29.90 in 10.0 mi NNE 5.8 mph - N/A   Mostly Cloudy
8:39 PM 78.8 °F - 73.4 °F 83% 29.93 in 10.0 mi East 11.5 mph 24.2 mph 0.00 in Rain Light Rain
8:53 PM 77.0 °F - 73.0 °F 88% 29.94 in 10.0 mi East 8.1 mph - 0.00 in   Overcast
9:02 PM 77.0 °F - 73.4 °F 89% 29.94 in 10.0 mi East 5.8 mph - N/A   Overcast
9:53 PM 77.0 °F - 73.0 °F 88% 29.97 in 10.0 mi NE 6.9 mph - N/A   Scattered Clouds
10:53 PM 75.0 °F - 70.0 °F 84% 29.97 in 10.0 mi NE 6.9 mph - N/A   Clear
11:53 PM 73.9 °F - 70.0 °F 87% 29.97 in 10.0 mi NE 4.6 mph - N/A   Mostly Cloudy